5NYEM HLLM-EGSS

Flight info

Callsign 5NYEM
Flight time N/A
Altitude 43000
Route MTG V950 REXOS A411 TANLI UA411 JBA UA856 KIRAS UZ147 DIMAO UG6 ANB UM134 LUXUR/N0492F410 M134 GENIO/N0493F430 N859 MJV N861 ADX/N0506F300 L2 VNV/N0495F430 N861 OLOXO DCT SECHE DCT TUPAR UN861 DIKRO UM184 PILIP UN6 TELTU
Aircraft C750/M-SBDE3FGHRWXY/S

Departure

Time 2026-05-07 07:27
Airport Mitiga International Airport (HLLM)

Arrival

Time N/A
Airport London Stansted Airport (EGSS)
Time Latitude Longitude Altitude Speed Heading
2026-05-07 07:04 32.90373 13.27932 35 ft 0 kts 123°
2026-05-07 07:09 32.90373 13.27931 35 ft 0 kts 123°
2026-05-07 07:14 32.90369 13.27932 35 ft 2 kts 167°
2026-05-07 07:15 32.90364 13.27917 13 ft 3 kts 272°
2026-05-07 07:15 32.90350 13.27860 35 ft 8 kts 208°
2026-05-07 07:15 32.90293 13.27859 35 ft 7 kts 156°
2026-05-07 07:15 32.90279 13.27860 35 ft 0 kts 251°
2026-05-07 07:16 32.90281 13.27823 35 ft 7 kts 254°
2026-05-07 07:16 32.90228 13.27775 35 ft 13 kts 206°
2026-05-07 07:16 32.90132 13.27718 35 ft 18 kts 209°
2026-05-07 07:16 32.90008 13.27655 35 ft 21 kts 203°
2026-05-07 07:17 32.89869 13.27587 35 ft 22 kts 191°
2026-05-07 07:17 32.89741 13.27603 35 ft 16 kts 137°
2026-05-07 07:17 32.89661 13.27659 35 ft 11 kts 194°
2026-05-07 07:17 32.89602 13.27633 35 ft 7 kts 160°
2026-05-07 07:18 32.89582 13.27673 35 ft 6 kts 107°
2026-05-07 07:18 32.89571 13.27725 35 ft 7 kts 106°
2026-05-07 07:18 32.89557 13.27788 35 ft 8 kts 104°
2026-05-07 07:18 32.89540 13.27860 35 ft 10 kts 105°
2026-05-07 07:19 32.89521 13.27942 34 ft 11 kts 105°
2026-05-07 07:19 32.89506 13.28005 34 ft 12 kts 106°
2026-05-07 07:19 32.89475 13.28139 34 ft 13 kts 105°
2026-05-07 07:19 32.89449 13.28252 34 ft 15 kts 105°
2026-05-07 07:20 32.89421 13.28374 33 ft 16 kts 105°
2026-05-07 07:20 32.89391 13.28505 34 ft 17 kts 105°
2026-05-07 07:20 32.89360 13.28642 34 ft 18 kts 105°
2026-05-07 07:20 32.89326 13.28787 33 ft 19 kts 105°
2026-05-07 07:21 32.89291 13.28940 33 ft 20 kts 105°
2026-05-07 07:21 32.89254 13.29102 33 ft 21 kts 105°
2026-05-07 07:21 32.89229 13.29214 33 ft 21 kts 105°
2026-05-07 07:21 32.89189 13.29388 33 ft 22 kts 105°
2026-05-07 07:22 32.89146 13.29572 32 ft 23 kts 105°
2026-05-07 07:22 32.89102 13.29762 32 ft 24 kts 106°
2026-05-07 07:22 32.89057 13.29959 33 ft 25 kts 105°
2026-05-07 07:22 32.89008 13.30173 33 ft 32 kts 105°
2026-05-07 07:23 32.88964 13.30362 32 ft 17 kts 107°
2026-05-07 07:23 32.88931 13.30499 32 ft 15 kts 105°
2026-05-07 07:23 32.88877 13.30502 32 ft 3 kts 220°
2026-05-07 07:24 32.88876 13.30501 32 ft 1 kts 219°
2026-05-07 07:24 32.88872 13.30497 32 ft 0 kts 219°
2026-05-07 07:24 32.88865 13.30491 32 ft 2 kts 218°
2026-05-07 07:25 32.88858 13.30484 32 ft 0 kts 218°
2026-05-07 07:25 32.88845 13.30471 32 ft 5 kts 219°
2026-05-07 07:25 32.88809 13.30446 33 ft 7 kts 207°
2026-05-07 07:26 32.88797 13.30417 33 ft 2 kts 278°
2026-05-07 07:26 32.88813 13.30349 34 ft 15 kts 284°
2026-05-07 07:26 32.88822 13.30312 34 ft 1 kts 284°
2026-05-07 07:26 32.88837 13.30242 34 ft 28 kts 285°
2026-05-07 07:27 32.88983 13.29613 33 ft 123 kts 285°
2026-05-07 07:27 32.89229 13.28545 507 ft 130 kts 283°
2026-05-07 07:27 32.89454 13.27457 1015 ft 144 kts 279°
2026-05-07 07:27 32.89818 13.26234 1285 ft 168 kts 291°
2026-05-07 07:28 32.90298 13.24974 1987 ft 171 kts 293°
2026-05-07 07:28 32.90838 13.23579 2476 ft 200 kts 293°
2026-05-07 07:28 32.91410 13.22125 2907 ft 224 kts 294°
2026-05-07 07:28 32.91997 13.20648 3236 ft 247 kts 294°
2026-05-07 07:29 32.92750 13.18753 3985 ft 254 kts 293°
2026-05-07 07:29 32.93499 13.16867 4966 ft 254 kts 292°
2026-05-07 07:29 32.94260 13.14943 5760 ft 259 kts 292°
2026-05-07 07:29 32.95033 13.12993 6579 ft 261 kts 292°
2026-05-07 07:30 32.95807 13.11041 7538 ft 259 kts 292°
2026-05-07 07:30 32.96573 13.09108 8619 ft 256 kts 292°
2026-05-07 07:30 32.97328 13.07197 9665 ft 255 kts 291°
2026-05-07 07:30 32.98088 13.05271 10349 ft 264 kts 291°
2026-05-07 07:31 32.98899 13.03202 10481 ft 290 kts 291°
2026-05-07 07:31 32.99714 13.00879 10519 ft 315 kts 288°
2026-05-07 07:31 33.00518 12.98443 11255 ft 314 kts 288°
2026-05-07 07:31 33.01326 12.96025 12011 ft 315 kts 287°
2026-05-07 07:32 33.02135 12.93587 12717 ft 317 kts 287°
2026-05-07 07:32 33.02946 12.91135 13422 ft 319 kts 286°
2026-05-07 07:32 33.03764 12.88662 14067 ft 322 kts 286°
2026-05-07 07:32 33.04581 12.86190 14557 ft 328 kts 286°
2026-05-07 07:33 33.05422 12.83643 15080 ft 332 kts 287°
2026-05-07 07:33 33.06274 12.81064 15611 ft 337 kts 287°
2026-05-07 07:33 33.07141 12.78437 16145 ft 342 kts 287°
2026-05-07 07:33 33.08019 12.75775 16687 ft 348 kts 288°
2026-05-07 07:34 33.08909 12.73067 17234 ft 353 kts 288°
2026-05-07 07:34 33.09810 12.70321 17807 ft 359 kts 288°
2026-05-07 07:34 33.10725 12.67528 18353 ft 364 kts 288°
2026-05-07 07:34 33.11654 12.64695 18928 ft 367 kts 288°
2026-05-07 07:35 33.12585 12.61853 19546 ft 370 kts 288°
2026-05-07 07:35 33.13524 12.58981 20154 ft 373 kts 288°
2026-05-07 07:35 33.14468 12.56088 20759 ft 376 kts 288°
2026-05-07 07:35 33.15424 12.53161 21376 ft 379 kts 288°
2026-05-07 07:36 33.16280 12.50534 21927 ft 382 kts 288°
2026-05-07 07:36 33.17247 12.47567 22549 ft 385 kts 288°
2026-05-07 07:36 33.18209 12.44611 23146 ft 388 kts 288°
2026-05-07 07:36 33.19190 12.41594 23712 ft 391 kts 288°
2026-05-07 07:37 33.20179 12.38550 24232 ft 394 kts 288°
2026-05-07 07:37 33.21172 12.35491 24759 ft 397 kts 288°
2026-05-07 07:37 33.22173 12.32404 25265 ft 399 kts 288°
2026-05-07 07:37 33.23179 12.29299 25780 ft 402 kts 288°
2026-05-07 07:38 33.24192 12.26167 26288 ft 405 kts 288°
2026-05-07 07:38 33.25212 12.23011 26800 ft 408 kts 288°
2026-05-07 07:38 33.26236 12.19840 27305 ft 410 kts 288°
2026-05-07 07:38 33.27266 12.16648 27813 ft 413 kts 288°
2026-05-07 07:39 33.28288 12.13476 28311 ft 416 kts 288°
2026-05-07 07:39 33.29345 12.10246 28788 ft 419 kts 289°
2026-05-07 07:39 33.30450 12.07009 29281 ft 422 kts 289°
2026-05-07 07:39 33.31560 12.03753 29744 ft 424 kts 289°
2026-05-07 07:40 33.32653 12.00460 30174 ft 427 kts 288°
2026-05-07 07:40 33.33749 11.97146 30583 ft 429 kts 288°
2026-05-07 07:40 33.34859 11.93833 31063 ft 429 kts 288°
2026-05-07 07:40 33.35967 11.90536 31746 ft 424 kts 288°
2026-05-07 07:41 33.37054 11.87273 32402 ft 421 kts 288°
2026-05-07 07:41 33.38128 11.84031 33029 ft 418 kts 288°
2026-05-07 07:41 33.39199 11.80810 33655 ft 414 kts 288°
2026-05-07 07:41 33.40262 11.77618 34248 ft 411 kts 288°
2026-05-07 07:42 33.41311 11.74457 34818 ft 407 kts 288°
2026-05-07 07:42 33.42350 11.71319 35405 ft 403 kts 288°
2026-05-07 07:42 33.43380 11.68209 35982 ft 399 kts 288°
2026-05-07 07:42 33.44388 11.65165 36552 ft 396 kts 288°
2026-05-07 07:43 33.45396 11.62115 37136 ft 392 kts 288°
2026-05-07 07:43 33.46396 11.59087 37694 ft 389 kts 288°
2026-05-07 07:43 33.47386 11.56084 38237 ft 386 kts 288°
2026-05-07 07:43 33.48366 11.53112 38725 ft 383 kts 288°
2026-05-07 07:44 33.49422 11.50175 39063 ft 385 kts 292°
2026-05-07 07:44 33.50775 11.47385 39426 ft 388 kts 298°
2026-05-07 07:44 33.52245 11.44651 39792 ft 388 kts 297°
2026-05-07 07:44 33.53692 11.41909 40153 ft 388 kts 297°
2026-05-07 07:45 33.55134 11.39168 40512 ft 389 kts 297°
2026-05-07 07:45 33.56569 11.36463 40869 ft 389 kts 297°
2026-05-07 07:45 33.58029 11.33717 41213 ft 390 kts 297°
2026-05-07 07:45 33.59481 11.30970 41559 ft 390 kts 297°
2026-05-07 07:46 33.60930 11.28225 41903 ft 390 kts 297°
2026-05-07 07:46 33.62384 11.25473 42245 ft 390 kts 297°
2026-05-07 07:46 33.63839 11.22718 42576 ft 391 kts 297°
2026-05-07 07:46 33.65288 11.19971 42894 ft 389 kts 297°
2026-05-07 07:47 33.66745 11.17202 42893 ft 396 kts 297°
2026-05-07 07:47 33.69741 11.11507 42916 ft 410 kts 297°
2026-05-07 07:48 33.72818 11.05654 42918 ft 423 kts 297°
2026-05-07 07:48 33.75998 10.99595 42911 ft 433 kts 297°
2026-05-07 07:49 33.79221 10.93445 42902 ft 435 kts 297°
2026-05-07 07:49 33.82437 10.87295 42895 ft 434 kts 297°
2026-05-07 07:50 33.85657 10.81127 42890 ft 435 kts 297°
2026-05-07 07:50 33.89036 10.75068 42881 ft 438 kts 302°
2026-05-07 07:51 33.92693 10.69257 42896 ft 439 kts 301°
2026-05-07 07:51 33.96367 10.63378 42892 ft 439 kts 302°
2026-05-07 07:52 34.00052 10.57502 42897 ft 439 kts 301°
2026-05-07 07:52 34.03730 10.51605 42899 ft 440 kts 301°
2026-05-07 07:53 34.07420 10.45694 42907 ft 441 kts 301°
2026-05-07 07:53 34.11103 10.39776 42909 ft 441 kts 301°
2026-05-07 07:54 34.14783 10.33857 42914 ft 441 kts 301°
2026-05-07 07:54 34.18466 10.27923 42913 ft 441 kts 301°
2026-05-07 07:55 34.22144 10.21986 42915 ft 441 kts 301°
2026-05-07 07:55 34.25798 10.16080 42914 ft 441 kts 301°
2026-05-07 07:56 34.29471 10.10131 42918 ft 441 kts 301°
2026-05-07 07:56 34.33152 10.04161 42917 ft 441 kts 301°
2026-05-07 07:57 34.36821 9.98199 42918 ft 441 kts 301°
2026-05-07 07:57 34.40853 9.92538 42902 ft 449 kts 311°
2026-05-07 07:58 34.45972 9.88092 42912 ft 461 kts 321°
2026-05-07 07:58 34.51470 9.84054 42919 ft 462 kts 321°
2026-05-07 07:59 34.56953 9.80012 42917 ft 461 kts 321°
2026-05-07 07:59 34.62452 9.75960 42926 ft 462 kts 321°
2026-05-07 08:00 34.67950 9.71896 42921 ft 462 kts 321°
2026-05-07 08:00 34.73427 9.67845 42925 ft 463 kts 321°
2026-05-07 08:01 34.78931 9.63766 42922 ft 463 kts 321°
2026-05-07 08:01 34.84439 9.59678 42932 ft 464 kts 321°
2026-05-07 08:02 34.89949 9.55583 42925 ft 464 kts 321°
2026-05-07 08:02 34.95469 9.51471 42919 ft 465 kts 321°
2026-05-07 08:03 35.00966 9.47373 42926 ft 465 kts 321°
2026-05-07 08:03 35.06498 9.43240 42931 ft 466 kts 321°
2026-05-07 08:04 35.12034 9.39099 42922 ft 466 kts 321°
2026-05-07 08:04 35.17563 9.34955 42923 ft 467 kts 321°
2026-05-07 08:05 35.23101 9.30799 42930 ft 467 kts 321°
2026-05-07 08:05 35.28633 9.26641 42925 ft 467 kts 321°
2026-05-07 08:06 35.34192 9.22452 42931 ft 469 kts 321°
2026-05-07 08:06 35.39719 9.18287 42928 ft 469 kts 320°
2026-05-07 08:07 35.45278 9.14085 42938 ft 469 kts 320°
2026-05-07 08:07 35.50840 9.09877 42935 ft 470 kts 320°
2026-05-07 08:08 35.55458 9.06359 42941 ft 468 kts 319°
2026-05-07 08:08 35.60899 9.01943 42943 ft 469 kts 318°
2026-05-07 08:09 35.66362 8.97523 42943 ft 470 kts 318°
2026-05-07 08:09 35.71820 8.93086 42946 ft 470 kts 318°
2026-05-07 08:10 35.77259 8.88664 42953 ft 472 kts 318°
2026-05-07 08:10 35.82738 8.84199 42956 ft 472 kts 318°
2026-05-07 08:11 35.88200 8.79740 42956 ft 473 kts 318°
2026-05-07 08:11 35.93713 8.75233 42955 ft 474 kts 318°
2026-05-07 08:12 35.99205 8.70736 42959 ft 473 kts 318°
2026-05-07 08:12 36.04700 8.66227 42954 ft 474 kts 318°
2026-05-07 08:13 36.10193 8.61714 42954 ft 474 kts 318°
2026-05-07 08:13 36.15682 8.57196 42958 ft 474 kts 319°
2026-05-07 08:14 36.21143 8.52692 42958 ft 473 kts 319°
2026-05-07 08:14 36.26629 8.48161 42966 ft 473 kts 319°
2026-05-07 08:15 36.32112 8.43624 42957 ft 473 kts 319°
2026-05-07 08:15 36.37551 8.39116 42960 ft 473 kts 318°
2026-05-07 08:16 36.42567 8.34030 42938 ft 458 kts 307°
2026-05-07 08:16 36.47007 8.28312 42961 ft 460 kts 307°
2026-05-07 08:17 36.51465 8.22607 42962 ft 459 kts 307°
2026-05-07 08:17 36.55872 8.16915 42956 ft 459 kts 307°
2026-05-07 08:18 36.60314 8.11199 42961 ft 459 kts 307°
2026-05-07 08:18 36.64751 8.05461 42954 ft 459 kts 307°
2026-05-07 08:19 36.69191 7.99717 42954 ft 460 kts 307°
2026-05-07 08:19 36.73628 7.93963 42944 ft 461 kts 307°
2026-05-07 08:20 36.78066 7.88201 42940 ft 460 kts 307°
2026-05-07 08:20 36.82267 7.82244 42931 ft 451 kts 298°
2026-05-07 08:21 36.85198 7.75499 42934 ft 441 kts 287°
2026-05-07 08:21 36.87513 7.68376 42946 ft 443 kts 287°
2026-05-07 08:22 36.89845 7.61245 42944 ft 443 kts 287°
2026-05-07 08:22 36.92145 7.54137 42947 ft 442 kts 287°
2026-05-07 08:23 36.94458 7.47008 42956 ft 443 kts 287°
2026-05-07 08:23 36.96763 7.39867 42956 ft 443 kts 286°
2026-05-07 08:24 36.99067 7.32724 42958 ft 443 kts 286°
2026-05-07 08:24 37.01366 7.25570 42955 ft 444 kts 286°
2026-05-07 08:25 37.03652 7.18445 42954 ft 444 kts 286°
2026-05-07 08:25 37.05948 7.11266 42958 ft 444 kts 286°
2026-05-07 08:26 37.09392 7.00470 42956 ft 445 kts 286°
2026-05-07 08:26 37.11684 6.93261 42957 ft 445 kts 286°
2026-05-07 08:27 37.13976 6.86034 42955 ft 446 kts 286°
2026-05-07 08:27 37.16262 6.78805 42953 ft 446 kts 286°
2026-05-07 08:28 37.18534 6.71605 42949 ft 447 kts 285°
2026-05-07 08:28 37.20815 6.64358 42949 ft 447 kts 285°
2026-05-07 08:29 37.23092 6.57106 42952 ft 447 kts 285°
2026-05-07 08:29 37.25370 6.49832 42950 ft 447 kts 285°
2026-05-07 08:30 37.27648 6.42535 42944 ft 450 kts 285°
2026-05-07 08:30 37.29932 6.35211 42939 ft 449 kts 285°
2026-05-07 08:31 37.32190 6.27938 42944 ft 450 kts 285°
2026-05-07 08:31 37.34464 6.20605 42938 ft 450 kts 285°
2026-05-07 08:32 37.36730 6.13275 42941 ft 450 kts 285°
2026-05-07 08:32 37.38996 6.05924 42944 ft 450 kts 285°
2026-05-07 08:33 37.41256 5.98577 42938 ft 451 kts 285°
2026-05-07 08:33 37.43514 5.91216 42941 ft 451 kts 285°
2026-05-07 08:34 37.45765 5.83854 42946 ft 451 kts 285°
2026-05-07 08:34 37.48016 5.76480 42946 ft 451 kts 285°
2026-05-07 08:35 37.50251 5.69132 42940 ft 452 kts 285°
2026-05-07 08:35 37.52496 5.61738 42945 ft 452 kts 285°
2026-05-07 08:36 37.54740 5.54324 42943 ft 452 kts 285°
2026-05-07 08:36 37.56977 5.46913 42949 ft 453 kts 285°
2026-05-07 08:37 37.59214 5.39483 42945 ft 453 kts 284°
2026-05-07 08:37 37.61434 5.32089 42944 ft 453 kts 284°
2026-05-07 08:38 37.63666 5.24637 42945 ft 454 kts 284°
2026-05-07 08:38 37.65897 5.17167 42949 ft 454 kts 284°
2026-05-07 08:39 37.68120 5.09706 42946 ft 454 kts 284°
2026-05-07 08:39 37.70340 5.02229 42941 ft 455 kts 284°
2026-05-07 08:40 37.72702 4.94794 42946 ft 457 kts 286°
2026-05-07 08:40 37.75119 4.87425 42950 ft 457 kts 286°
2026-05-07 08:41 37.77538 4.79988 42950 ft 457 kts 286°
2026-05-07 08:41 37.79961 4.72546 42947 ft 457 kts 286°
2026-05-07 08:42 37.82375 4.65097 42951 ft 458 kts 286°
2026-05-07 08:42 37.84775 4.57681 42952 ft 458 kts 286°
2026-05-07 08:43 37.87187 4.50203 42950 ft 459 kts 286°
2026-05-07 08:43 37.89596 4.42718 42947 ft 459 kts 286°
2026-05-07 08:44 37.92003 4.35218 42954 ft 460 kts 286°
2026-05-07 08:44 37.94411 4.27696 42946 ft 460 kts 286°
2026-05-07 08:45 37.96798 4.20219 42951 ft 461 kts 286°
2026-05-07 08:45 37.99199 4.12680 42948 ft 461 kts 286°
2026-05-07 08:46 38.01593 4.05139 42947 ft 462 kts 285°
2026-05-07 08:46 38.03991 3.97570 42944 ft 462 kts 285°
2026-05-07 08:47 38.06385 3.89991 42953 ft 463 kts 285°
2026-05-07 08:47 38.08761 3.82447 42951 ft 463 kts 285°
2026-05-07 08:48 38.11149 3.74848 42949 ft 463 kts 285°
2026-05-07 08:48 38.13539 3.67221 42954 ft 464 kts 285°
2026-05-07 08:49 38.15923 3.59591 42952 ft 465 kts 285°
2026-05-07 08:49 38.18304 3.51950 42954 ft 465 kts 285°
2026-05-07 08:50 38.20685 3.44290 42950 ft 466 kts 285°
2026-05-07 08:50 38.22961 3.36627 42949 ft 467 kts 285°
2026-05-07 08:51 38.25272 3.28898 42934 ft 467 kts 287°
2026-05-07 08:51 38.28648 3.21708 42945 ft 482 kts 302°
2026-05-07 08:52 38.33515 3.15718 42937 ft 498 kts 317°
2026-05-07 08:52 38.39697 3.11462 42941 ft 515 kts 333°
2026-05-07 08:53 38.46668 3.08968 42964 ft 522 kts 339°
2026-05-07 08:53 38.53688 3.06589 42963 ft 523 kts 339°
2026-05-07 08:54 38.60747 3.04209 42964 ft 523 kts 339°
2026-05-07 08:54 38.67745 3.01837 42969 ft 523 kts 339°
2026-05-07 08:55 38.74783 2.99450 42962 ft 523 kts 339°
2026-05-07 08:55 38.80687 2.97442 42969 ft 523 kts 339°
2026-05-07 08:56 38.87687 2.95057 42973 ft 523 kts 339°
2026-05-07 08:56 38.94725 2.92655 42974 ft 523 kts 339°
2026-05-07 08:57 39.01747 2.90234 42971 ft 523 kts 339°
2026-05-07 08:57 39.08771 2.87824 42975 ft 522 kts 339°
2026-05-07 08:58 39.15804 2.85408 42977 ft 522 kts 339°
2026-05-07 08:58 39.22826 2.82988 42975 ft 522 kts 339°
2026-05-07 08:59 39.29844 2.80567 42976 ft 521 kts 340°
2026-05-07 08:59 39.36642 2.77535 42960 ft 510 kts 328°
2026-05-07 09:00 39.42284 2.72376 42964 ft 496 kts 311°
2026-05-07 09:00 39.46527 2.65479 42974 ft 485 kts 296°
2026-05-07 09:01 39.49280 2.57609 42975 ft 479 kts 287°
2026-05-07 09:01 39.51988 2.49706 42951 ft 484 kts 295°
2026-05-07 09:02 39.56145 2.42750 42957 ft 496 kts 310°
2026-05-07 09:02 39.61783 2.37394 42968 ft 509 kts 326°
2026-05-07 09:03 39.68425 2.34115 42989 ft 518 kts 338°
2026-05-07 09:03 39.75329 2.31313 42987 ft 518 kts 338°
2026-05-07 09:04 39.82220 2.28497 42984 ft 518 kts 338°
2026-05-07 09:04 39.89066 2.25705 42985 ft 519 kts 338°
2026-05-07 09:05 39.95955 2.22881 42980 ft 519 kts 338°
2026-05-07 09:05 40.02837 2.20059 42986 ft 518 kts 338°
2026-05-07 09:06 40.09726 2.17225 42995 ft 519 kts 338°
2026-05-07 09:06 40.16617 2.14386 42998 ft 519 kts 338°
2026-05-07 09:07 40.23512 2.11538 42998 ft 520 kts 338°
2026-05-07 09:07 40.30420 2.08680 42995 ft 520 kts 338°
2026-05-07 09:08 40.37329 2.05814 43000 ft 521 kts 338°
2026-05-07 09:08 40.44245 2.02940 43007 ft 521 kts 338°
2026-05-07 09:09 40.51114 2.00079 43004 ft 521 kts 338°
2026-05-07 09:09 40.58067 1.97176 43012 ft 521 kts 338°
2026-05-07 09:10 40.64928 1.94307 43010 ft 521 kts 338°
2026-05-07 09:10 40.71844 1.91407 43012 ft 520 kts 338°
2026-05-07 09:11 40.78749 1.88506 43014 ft 520 kts 338°
2026-05-07 09:11 40.85648 1.85601 43013 ft 520 kts 338°
2026-05-07 09:12 40.92541 1.82692 43013 ft 520 kts 338°
2026-05-07 09:12 40.99431 1.79778 43019 ft 519 kts 338°
2026-05-07 09:13 41.03986 1.77848 43023 ft 519 kts 338°
2026-05-07 09:13 41.13136 1.73963 43024 ft 518 kts 338°
2026-05-07 09:14 41.20031 1.71064 43012 ft 520 kts 340°
2026-05-07 09:14 41.27223 1.69584 43021 ft 526 kts 351°
2026-05-07 09:15 41.34500 1.68554 43025 ft 525 kts 349°
2026-05-07 09:15 41.41750 1.67349 43020 ft 525 kts 350°
2026-05-07 09:16 41.47789 1.66474 43020 ft 525 kts 350°
2026-05-07 09:16 41.55039 1.65295 43021 ft 525 kts 349°